,,,PA_Meas_PMT16A,,PR_Meas_QMR101_102,,RH_Meas_QMH101,,SR_Meas_QMS101,,TA_Meas_QMH101,,GenWind,,GenWind,
date,time,status,PA,status,PR,status,RH,status,SR,status,TA,status,DirAvg,status,SpdAvg,
2012-02-19, 00:00:04,VALID,1000.56,VALID,0,VALID,91.4944,VALID,0,VALID,24.6965,VALID,345,VALID,0.159375,
2012-02-19, 00:01:04,VALID,1000.54,VALID,0,VALID,91.4715,VALID,0,VALID,24.6556,VALID,345,VALID,0,
2012-02-19, 00:02:04,VALID,1000.54,VALID,0,VALID,91.441,VALID,0,VALID,24.6556,VALID,345,VALID,0,
2012-02-19, 00:03:04,VALID,1000.53,VALID,0,VALID,91.4791,VALID,0,VALID,24.6556,VALID,345,VALID,0,
2012-02-19, 00:04:04,VALID,1000.53,VALID,0,VALID,91.4868,VALID,0,VALID,24.6575,VALID,345,VALID,0,
2012-02-19, 00:05:04,VALID,1000.5,VALID,0,VALID,91.5478,VALID,0,VALID,24.638,VALID,345,VALID,0.527344,
2012-02-19, 00:06:04,VALID,1000.51,VALID,0,VALID,91.586,VALID,0,VALID,24.6184,VALID,35,VALID,0.690625,
2012-02-19, 00:07:04,VALID,1000.48,VALID,0,VALID,91.5554,VALID,0,VALID,24.6184,VALID,51,VALID,0.565625,
2012-02-19, 00:08:04,VALID,1000.42,VALID,0,VALID,91.5936,VALID,0,VALID,24.5989,VALID,51,VALID,0.648047,
2012-02-19, 00:09:04,VALID,1000.43,VALID,0,VALID,91.6165,VALID,0,VALID,24.5989,VALID,51,VALID,0.479688,
2012-02-19, 00:10:04,VALID,1000.4,VALID,0,VALID,91.5249,VALID,0,VALID,24.5794,VALID,51,VALID,0.437891,
2012-02-19, 00:11:04,VALID,1000.43,VALID,0,VALID,91.502,VALID,0,VALID,24.5404,VALID,51,VALID,0.364844,
2012-02-19, 00:12:04,VALID,1000.43,VALID,0,VALID,91.5326,VALID,0,VALID,24.5404,VALID,51,VALID,0.415625,
2012-02-19, 00:13:04,VALID,1000.43,VALID,0,VALID,91.5631,VALID,0,VALID,24.519,VALID,51,VALID,0.38125,
2012-02-19, 00:14:04,VALID,1000.43,VALID,0,VALID,91.6241,VALID,0,VALID,24.5209,VALID,51,VALID,0.309375,
2012-02-19, 00:15:04,VALID,1000.42,VALID,0,VALID,91.6394,VALID,0,VALID,24.5013,VALID,51,VALID,0.263281,
2012-02-19, 00:16:04,VALID,1000.39,VALID,0,VALID,91.6928,VALID,0,VALID,24.48,VALID,51,VALID,0.293359,
2012-02-19, 00:17:04,VALID,1000.39,VALID,0,VALID,91.7767,VALID,0,VALID,24.4818,VALID,51,VALID,0.0972656,
2012-02-19, 00:18:04,VALID,1000.4,VALID,0,VALID,91.7996,VALID,0,VALID,24.4623,VALID,51,VALID,0,
2012-02-19, 00:19:04,VALID,1000.38,VALID,0,VALID,91.7614,VALID,0,VALID,24.4604,VALID,51,VALID,0,
2012-02-19, 00:20:04,VALID,1000.4,VALID,0,VALID,91.7157,VALID,0,VALID,24.4623,VALID,79,VALID,0.557031,
2012-02-19, 00:21:04,VALID,1000.39,VALID,0,VALID,91.6699,VALID,0,VALID,24.4409,VALID,106,VALID,0.627344,
2012-02-19, 00:22:04,VALID,1000.41,VALID,0,VALID,91.6012,VALID,0,VALID,24.4623,VALID,106,VALID,0.716016,
2012-02-19, 00:23:04,VALID,1000.4,VALID,0,VALID,91.4791,VALID,0,VALID,24.4233,VALID,106,VALID,0.719922,
2012-02-19, 00:24:04,VALID,1000.42,VALID,0,VALID,91.3952,VALID,0,VALID,24.4233,VALID,106,VALID,0.522266,
2012-02-19, 00:25:04,VALID,1000.39,VALID,0,VALID,91.3647,VALID,0,VALID,24.4037,VALID,106,VALID,0.404687,
2012-02-19, 00:26:04,VALID,1000.36,VALID,0,VALID,91.3723,VALID,0,VALID,24.3824,VALID,106,VALID,0.387891,
2012-02-19, 00:27:04,VALID,1000.33,VALID,0,VALID,91.3571,VALID,0,VALID,24.4037,VALID,106,VALID,0.467969,
2012-02-19, 00:28:04,VALID,1000.32,VALID,0,VALID,91.296,VALID,0,VALID,24.4037,VALID,107,VALID,0.604688,
2012-02-19, 00:29:04,VALID,1000.29,VALID,0,VALID,91.174,VALID,0,VALID,24.3842,VALID,120,VALID,0.579687,
2012-02-19, 00:30:04,VALID,1000.27,VALID,0,VALID,91.1282,VALID,0,VALID,24.3842,VALID,120,VALID,0.249219,
2012-02-19, 00:31:04,VALID,1000.27,VALID,0,VALID,91.0977,VALID,0,VALID,24.3842,VALID,120,VALID,0.275,
2012-02-19, 00:32:04,VALID,1000.21,VALID,0,VALID,91.0366,VALID,0,VALID,24.3842,VALID,120,VALID,0,
2012-02-19, 00:33:04,VALID,1000.21,VALID,0,VALID,90.9985,VALID,0,VALID,24.3629,VALID,120,VALID,0,
2012-02-19, 00:34:04,VALID,1000.2,VALID,0,VALID,91.0366,VALID,0,VALID,24.3629,VALID,120,VALID,0,
2012-02-19, 00:35:04,VALID,1000.21,VALID,0,VALID,90.9832,VALID,0,VALID,24.3647,VALID,120,VALID,0,
2012-02-19, 00:36:04,VALID,1000.21,VALID,0,VALID,90.8535,VALID,0,VALID,24.3647,VALID,120,VALID,0,
2012-02-19, 00:37:04,VALID,1000.22,VALID,0,VALID,90.7009,VALID,0,VALID,24.3647,VALID,120,VALID,0,
2012-02-19, 00:38:04,VALID,1000.22,VALID,0,VALID,90.556,VALID,0,VALID,24.3647,VALID,120,VALID,0,
2012-02-19, 00:39:04,VALID,1000.25,VALID,0,VALID,90.4949,VALID,0,VALID,24.3238,VALID,120,VALID,0,
2012-02-19, 00:40:04,VALID,1000.21,VALID,0,VALID,90.6933,VALID,0,VALID,24.3238,VALID,120,VALID,0,
2012-02-19, 00:41:04,VALID,1000.2,VALID,0,VALID,91.0214,VALID,0,VALID,24.3452,VALID,120,VALID,0,
2012-02-19, 00:42:04,VALID,1000.21,VALID,0,VALID,91.1434,VALID,0,VALID,24.3452,VALID,120,VALID,0,
2012-02-19, 00:43:04,VALID,1000.18,VALID,0,VALID,91.1892,VALID,0,VALID,24.3452,VALID,120,VALID,0,
2012-02-19, 00:44:04,VALID,1000.18,VALID,0,VALID,90.9451,VALID,0,VALID,24.3043,VALID,120,VALID,0,
2012-02-19, 00:45:04,VALID,1000.21,VALID,0,VALID,90.9451,VALID,0,VALID,24.3257,VALID,120,VALID,0,
2012-02-19, 00:46:04,VALID,1000.17,VALID,0,VALID,91.1129,VALID,0,VALID,24.3257,VALID,120,VALID,0,
2012-02-19, 00:47:04,VALID,1000.15,VALID,0,VALID,91.1129,VALID,0,VALID,24.3043,VALID,120,VALID,0,
2012-02-19, 00:48:04,VALID,1000.14,VALID,0,VALID,91.2197,VALID,0,VALID,24.3452,VALID,120,VALID,0,
2012-02-19, 00:49:04,VALID,1000.12,VALID,0,VALID,91.1968,VALID,0,VALID,24.3257,VALID,120,VALID,0,
2012-02-19, 00:50:04,VALID,1000.11,VALID,0,VALID,91.3037,VALID,0,VALID,24.3257,VALID,120,VALID,0,
2012-02-19, 00:51:04,VALID,1000.05,VALID,0,VALID,91.4944,VALID,0,VALID,24.3238,VALID,35,VALID,0,
2012-02-19, 00:52:04,VALID,1000.07,VALID,0,VALID,91.5402,VALID,0,VALID,24.3452,VALID,35,VALID,0,
2012-02-19, 00:53:04,VALID,1000.03,VALID,0,VALID,91.5402,VALID,0,VALID,24.3043,VALID,35,VALID,0,
2012-02-19, 00:54:04,VALID,1000.01,VALID,0,VALID,91.6394,VALID,0,VALID,24.3257,VALID,35,VALID,0,
2012-02-19, 00:55:04,VALID,999.967,VALID,0,VALID,91.7691,VALID,0,VALID,24.3257,VALID,35,VALID,0,
2012-02-19, 00:56:04,VALID,999.937,VALID,0,VALID,91.8454,VALID,0,VALID,24.3043,VALID,35,VALID,0,
2012-02-19, 00:57:04,VALID,999.913,VALID,0,VALID,91.853,VALID,0,VALID,24.3043,VALID,35,VALID,0,
2012-02-19, 00:58:04,VALID,999.88,VALID,0,VALID,91.8148,VALID,0,VALID,24.2848,VALID,35,VALID,0,
2012-02-19, 00:59:04,VALID,999.866,VALID,0,VALID,91.9293,VALID,0,VALID,24.2866,VALID,70,VALID,0,
2012-02-19, 01:00:04,VALID,999.813,VALID,0,VALID,92.1124,VALID,0,VALID,24.2653,VALID,68,VALID,0,
2012-02-19, 01:01:04,VALID,999.828,VALID,0,VALID,92.2345,VALID,0,VALID,24.2653,VALID,68,VALID,0,
2012-02-19, 01:02:04,VALID,999.831,VALID,0,VALID,92.2574,VALID,0,VALID,24.2653,VALID,66,VALID,0,
2012-02-19, 01:03:04,VALID,999.808,VALID,0,VALID,92.265,VALID,0,VALID,24.2671,VALID,63,VALID,0,
2012-02-19, 01:04:04,VALID,999.8,VALID,0,VALID,92.2803,VALID,0,VALID,24.2866,VALID,57,VALID,0,
2012-02-19, 01:05:04,VALID,999.8,VALID,0,VALID,92.3489,VALID,0,VALID,24.2653,VALID,48,VALID,0,
2012-02-19, 01:06:04,VALID,999.793,VALID,0,VALID,92.4023,VALID,0,VALID,24.2653,VALID,37,VALID,0,
2012-02-19, 01:07:04,VALID,999.782,VALID,0,VALID,92.4023,VALID,0.104696,VALID,24.2458,VALID,35,VALID,0,
2012-02-19, 01:08:04,VALID,999.736,VALID,0,VALID,92.4328,VALID,0,VALID,24.2263,VALID,23,VALID,0,
2012-02-19, 01:09:04,VALID,999.741,VALID,0,VALID,92.4786,VALID,0,VALID,24.2476,VALID,23,VALID,0,
2012-02-19, 01:10:04,VALID,999.699,VALID,0,VALID,92.5168,VALID,0,VALID,24.2067,VALID,21,VALID,0.653516,
2012-02-19, 01:11:04,VALID,999.669,VALID,0,VALID,92.5702,VALID,0,VALID,24.2281,VALID,14,VALID,0.592188,
2012-02-19, 01:12:04,VALID,999.652,VALID,0,VALID,92.6312,VALID,0,VALID,24.2086,VALID,358,VALID,0.730078,
2012-02-19, 01:13:04,VALID,999.627,VALID,0,VALID,92.6923,VALID,0,VALID,24.1891,VALID,4,VALID,1.13555,
2012-02-19, 01:14:04,VALID,999.587,VALID,0,VALID,92.7609,VALID,0,VALID,24.1891,VALID,4,VALID,0.637109,
2012-02-19, 01:15:04,VALID,999.599,VALID,0,VALID,92.8448,VALID,0,VALID,24.2086,VALID,23,VALID,0.574219,
2012-02-19, 01:16:04,VALID,999.553,VALID,0,VALID,92.9364,VALID,0,VALID,24.2086,VALID,23,VALID,0.679688,
2012-02-19, 01:17:04,VALID,999.537,VALID,0,VALID,92.9745,VALID,0,VALID,24.2281,VALID,31,VALID,0.532031,
2012-02-19, 01:18:04,VALID,999.477,VALID,0,VALID,93.0127,VALID,0,VALID,24.2086,VALID,31,VALID,0.430078,
2012-02-19, 01:19:04,VALID,999.474,VALID,0,VALID,93.0127,VALID,0,VALID,24.2086,VALID,31,VALID,0,
2012-02-19, 01:20:04,VALID,999.445,VALID,0,VALID,93.0051,VALID,0,VALID,24.2086,VALID,31,VALID,0,
2012-02-19, 01:21:04,VALID,999.474,VALID,0,VALID,92.9669,VALID,0,VALID,24.2086,VALID,31,VALID,0,
2012-02-19, 01:22:04,VALID,999.435,VALID,0,VALID,92.9593,VALID,0,VALID,24.1891,VALID,31,VALID,0,
2012-02-19, 01:23:04,VALID,999.437,VALID,0,VALID,92.9364,VALID,0,VALID,24.2086,VALID,31,VALID,0,
2012-02-19, 01:24:04,VALID,999.415,VALID,0,VALID,92.9593,VALID,0,VALID,24.1891,VALID,31,VALID,0,
2012-02-19, 01:25:04,VALID,999.43,VALID,0,VALID,92.9822,VALID,0,VALID,24.1677,VALID,31,VALID,0,
2012-02-19, 01:26:04,VALID,999.414,VALID,0,VALID,93.0051,VALID,0,VALID,24.1872,VALID,31,VALID,0,
2012-02-19, 01:27:04,VALID,999.426,VALID,0,VALID,93.0051,VALID,0,VALID,24.1677,VALID,31,VALID,0,
2012-02-19, 01:28:04,VALID,999.378,VALID,0,VALID,93.0508,VALID,0,VALID,24.1872,VALID,45,VALID,0.653516,
2012-02-19, 01:29:04,VALID,999.386,VALID,0,VALID,93.0203,VALID,0,VALID,24.2086,VALID,45,VALID,0.649609,
2012-02-19, 01:30:04,VALID,999.418,VALID,0,VALID,92.9669,VALID,0,VALID,24.1872,VALID,56,VALID,0.640234,
2012-02-19, 01:31:04,VALID,999.412,VALID,0,VALID,92.9135,VALID,0,VALID,24.1891,VALID,56,VALID,0.692187,
2012-02-19, 01:32:04,VALID,999.414,VALID,0,VALID,92.8906,VALID,0,VALID,24.1696,VALID,56,VALID,0.703906,
2012-02-19, 01:33:04,VALID,999.419,VALID,0,VALID,92.8754,VALID,0,VALID,24.1482,VALID,55,VALID,0.837891,
2012-02-19, 01:34:04,VALID,999.417,VALID,0,VALID,92.883,VALID,0,VALID,24.15,VALID,49,VALID,0.997656,
2012-02-19, 01:35:04,VALID,999.412,VALID,0,VALID,92.9059,VALID,0,VALID,24.15,VALID,46,VALID,1.04414,
2012-02-19, 01:36:04,VALID,999.449,VALID,0,VALID,92.9593,VALID,0,VALID,24.1305,VALID,42,VALID,1.12109,
2012-02-19, 01:37:04,VALID,999.414,VALID,0,VALID,93.0127,VALID,0,VALID,24.1324,VALID,42,VALID,1.07383,
2012-02-19, 01:38:04,VALID,999.424,VALID,0,VALID,93.0661,VALID,0,VALID,24.1305,VALID,43,VALID,0.827734,
2012-02-19, 01:39:04,VALID,999.385,VALID,0,VALID,93.1195,VALID,0,VALID,24.1092,VALID,44,VALID,0.867188,
2012-02-19, 01:40:04,VALID,999.396,VALID,0,VALID,93.1348,VALID,0,VALID,24.15,VALID,44,VALID,0.716797,
2012-02-19, 01:41:04,VALID,999.375,VALID,0,VALID,93.1729,VALID,0,VALID,24.1305,VALID,45,VALID,0.562109,
2012-02-19, 01:42:04,VALID,999.348,VALID,0,VALID,93.15,VALID,0,VALID,24.1305,VALID,45,VALID,0.295312,
2012-02-19, 01:43:04,VALID,999.32,VALID,0,VALID,93.1424,VALID,0,VALID,24.1305,VALID,45,VALID,0.105469,
2012-02-19, 01:44:04,VALID,999.277,VALID,0,VALID,93.1271,VALID,0,VALID,24.1092,VALID,45,VALID,0,
2012-02-19, 01:45:04,VALID,999.234,VALID,0,VALID,93.1119,VALID,0,VALID,24.111,VALID,45,VALID,0,
2012-02-19, 01:46:04,VALID,999.258,VALID,0,VALID,93.0585,VALID,0,VALID,24.111,VALID,45,VALID,0,
2012-02-19, 01:47:04,VALID,999.244,VALID,0,VALID,93.0356,VALID,0,VALID,24.0897,VALID,45,VALID,0,
2012-02-19, 01:48:04,VALID,999.217,VALID,0,VALID,93.0203,VALID,0,VALID,24.0897,VALID,45,VALID,0,
2012-02-19, 01:49:04,VALID,999.182,VALID,0,VALID,93.0203,VALID,0,VALID,24.111,VALID,45,VALID,0,
2012-02-19, 01:50:04,VALID,999.216,VALID,0,VALID,93.0585,VALID,0,VALID,24.1092,VALID,45,VALID,0,
2012-02-19, 01:51:04,VALID,999.206,VALID,0,VALID,93.089,VALID,0,VALID,24.1305,VALID,45,VALID,0,
2012-02-19, 01:52:04,VALID,999.197,VALID,0,VALID,93.0966,VALID,0,VALID,24.1305,VALID,45,VALID,0,
2012-02-19, 01:53:04,VALID,999.203,VALID,0,VALID,93.0814,VALID,0,VALID,24.15,VALID,45,VALID,0,
2012-02-19, 01:54:04,VALID,999.208,VALID,0,VALID,93.0661,VALID,0,VALID,24.15,VALID,85,VALID,0,
2012-02-19, 01:55:04,VALID,999.196,VALID,0,VALID,93.1348,VALID,0,VALID,24.1696,VALID,176,VALID,0,
2012-02-19, 01:56:04,VALID,999.215,VALID,0,VALID,93.1424,VALID,0,VALID,24.1891,VALID,176,VALID,0,
2012-02-19, 01:57:04,VALID,999.207,VALID,0,VALID,93.1882,VALID,0,VALID,24.2086,VALID,176,VALID,0,
2012-02-19, 01:58:04,VALID,999.215,VALID,0,VALID,93.2187,VALID,0,VALID,24.2281,VALID,176,VALID,0,
2012-02-19, 01:59:04,VALID,999.238,VALID,0,VALID,93.2492,VALID,0,VALID,24.2671,VALID,169,VALID,0.455859,
2012-02-19, 02:00:04,VALID,999.289,VALID,0,VALID,93.2721,VALID,0,VALID,24.2671,VALID,169,VALID,0.301953,
2012-02-19, 02:01:04,VALID,999.287,VALID,0,VALID,93.2263,VALID,0,VALID,24.3062,VALID,169,VALID,0.166406,
2012-02-19, 02:02:04,VALID,999.32,VALID,0,VALID,93.2187,VALID,0,VALID,24.2848,VALID,169,VALID,0.457812,
2012-02-19, 02:03:04,VALID,999.333,VALID,0,VALID,93.2111,VALID,0,VALID,24.3452,VALID,185,VALID,0.353906,
2012-02-19, 02:04:04,VALID,999.355,VALID,0,VALID,93.1805,VALID,0,VALID,24.3647,VALID,185,VALID,0,
2012-02-19, 02:05:04,VALID,999.377,VALID,0,VALID,93.1653,VALID,0,VALID,24.3647,VALID,235,VALID,0.608203,
2012-02-19, 02:06:04,VALID,999.45,VALID,0,VALID,93.1271,VALID,0,VALID,24.3842,VALID,269,VALID,1.2125,
2012-02-19, 02:07:04,VALID,999.502,VALID,0,VALID,93.1424,VALID,0,VALID,24.3629,VALID,243,VALID,1.74805,
2012-02-19, 02:08:04,VALID,999.483,VALID,0,VALID,93.0966,VALID,0,VALID,24.3842,VALID,240,VALID,1.31758,
2012-02-19, 02:09:04,VALID,999.471,VALID,0,VALID,93.0203,VALID,0,VALID,24.3433,VALID,266,VALID,1.55,
2012-02-19, 02:10:04,VALID,999.459,VALID,0,VALID,92.9364,VALID,0,VALID,24.3452,VALID,228,VALID,1.64102,
2012-02-19, 02:11:04,VALID,999.406,VALID,0,VALID,92.8754,VALID,0,VALID,24.3257,VALID,214,VALID,2.47148,
2012-02-19, 02:12:04,VALID,999.425,VALID,0,VALID,92.8296,VALID,0,VALID,24.3452,VALID,218,VALID,1.93438,
2012-02-19, 02:13:04,VALID,999.444,VALID,0,VALID,92.7457,VALID,0,VALID,24.3647,VALID,212,VALID,2.3082,
2012-02-19, 02:14:04,VALID,999.443,VALID,0,VALID,92.5702,VALID,0,VALID,24.3647,VALID,249,VALID,1.91914,
2012-02-19, 02:15:04,VALID,999.429,VALID,0,VALID,92.3718,VALID,0,VALID,24.3433,VALID,209,VALID,1.525,
2012-02-19, 02:16:04,VALID,999.382,VALID,0,VALID,92.1582,VALID,0,VALID,24.3647,VALID,242,VALID,1.16758,
2012-02-19, 02:17:04,VALID,999.426,VALID,0,VALID,91.8072,VALID,0,VALID,24.3647,VALID,227,VALID,1.94922,
2012-02-19, 02:18:04,VALID,999.414,VALID,0,VALID,91.4944,VALID,0,VALID,24.3452,VALID,245,VALID,2.94844,
2012-02-19, 02:19:04,VALID,999.428,VALID,0,VALID,91.3571,VALID,0,VALID,24.3452,VALID,223,VALID,1.63086,
2012-02-19, 02:20:04,VALID,999.42,VALID,0,VALID,91.3723,VALID,0,VALID,24.3452,VALID,222,VALID,1.23477,
2012-02-19, 02:21:04,VALID,999.444,VALID,0,VALID,91.3113,VALID,0,VALID,24.3452,VALID,246,VALID,0.998438,
2012-02-19, 02:22:04,VALID,999.45,VALID,0,VALID,91.2045,VALID,0,VALID,24.3452,VALID,229,VALID,1.22969,
2012-02-19, 02:23:04,VALID,999.484,VALID,0,VALID,91.1968,VALID,0,VALID,24.3452,VALID,282,VALID,0.700391,
2012-02-19, 02:24:04,VALID,999.502,VALID,0,VALID,91.3037,VALID,0,VALID,24.3238,VALID,295,VALID,1.16172,
2012-02-19, 02:25:04,VALID,999.521,VALID,0,VALID,91.3266,VALID,0,VALID,24.3257,VALID,303,VALID,0.591797,
2012-02-19, 02:26:04,VALID,999.565,VALID,0,VALID,91.4028,VALID,0,VALID,24.3257,VALID,265,VALID,0.816797,
2012-02-19, 02:27:04,VALID,999.563,VALID,0,VALID,91.502,VALID,0,VALID,24.3043,VALID,329,VALID,0.718359,
2012-02-19, 02:28:04,VALID,999.56,VALID,0,VALID,91.5249,VALID,0,VALID,24.3257,VALID,301,VALID,1.79336,
2012-02-19, 02:29:04,VALID,999.584,VALID,0,VALID,91.5097,VALID,0,VALID,24.2848,VALID,291,VALID,0.521875,
2012-02-19, 02:30:04,VALID,999.574,VALID,0,VALID,91.6699,VALID,0,VALID,24.2848,VALID,330,VALID,0.650391,
2012-02-19, 02:31:04,VALID,999.568,VALID,0,VALID,91.7309,VALID,0,VALID,24.2653,VALID,299,VALID,1.14766,
2012-02-19, 02:32:04,VALID,999.569,VALID,0,VALID,91.8225,VALID,0,VALID,24.2866,VALID,307,VALID,0.414844,
2012-02-19, 02:33:04,VALID,999.574,VALID,0,VALID,91.8988,VALID,0,VALID,24.2671,VALID,285,VALID,0.719922,
2012-02-19, 02:34:04,VALID,999.569,VALID,0.5,VALID,91.9903,VALID,0,VALID,24.2671,VALID,270,VALID,0.371875,
2012-02-19, 02:35:04,VALID,999.546,VALID,0,VALID,92.1124,VALID,0,VALID,24.2671,VALID,298,VALID,0.996875,
2012-02-19, 02:36:04,VALID,999.561,VALID,0,VALID,92.2726,VALID,0,VALID,24.2671,VALID,328,VALID,1.21289,
2012-02-19, 02:37:04,VALID,999.557,VALID,0,VALID,92.4634,VALID,0,VALID,24.2458,VALID,299,VALID,0.544531,
2012-02-19, 02:38:04,VALID,999.56,VALID,0.5,VALID,92.532,VALID,0,VALID,24.2263,VALID,269,VALID,0.560156,
2012-02-19, 02:39:04,VALID,999.511,VALID,0,VALID,92.5854,VALID,0,VALID,24.2067,VALID,312,VALID,0.919531,
2012-02-19, 02:40:04,VALID,999.599,VALID,0,VALID,92.6465,VALID,0,VALID,24.1872,VALID,304,VALID,0.876172,
2012-02-19, 02:41:04,VALID,999.57,VALID,0.5,VALID,92.7304,VALID,0,VALID,24.2281,VALID,241,VALID,0.492969,
2012-02-19, 02:42:04,VALID,999.58,VALID,0,VALID,92.7762,VALID,0,VALID,24.2086,VALID,204,VALID,0.885938,
2012-02-19, 02:43:04,VALID,999.58,VALID,0,VALID,92.8448,VALID,0,VALID,24.2067,VALID,191,VALID,1.08008,
2012-02-19, 02:44:04,VALID,999.574,VALID,0.5,VALID,92.883,VALID,0,VALID,24.1872,VALID,194,VALID,1.17695,
2012-02-19, 02:45:04,VALID,999.595,VALID,0,VALID,92.9364,VALID,0,VALID,24.1872,VALID,226,VALID,0.642187,
2012-02-19, 02:46:04,VALID,999.595,VALID,0,VALID,92.9822,VALID,0,VALID,24.1677,VALID,211,VALID,1.22852,
2012-02-19, 02:47:04,VALID,999.615,VALID,0.5,VALID,93.0585,VALID,0,VALID,24.1891,VALID,228,VALID,0.666016,
2012-02-19, 02:48:04,VALID,999.615,VALID,0,VALID,93.1043,VALID,0,VALID,24.1677,VALID,234,VALID,0.196094,
2012-02-19, 02:49:04,VALID,999.616,VALID,0.5,VALID,93.1577,VALID,0,VALID,24.1891,VALID,234,VALID,0.111328,
2012-02-19, 02:50:04,VALID,999.622,VALID,0,VALID,93.1882,VALID,0,VALID,24.1482,VALID,325,VALID,1.23086,
2012-02-19, 02:51:04,VALID,999.664,VALID,0,VALID,93.1805,VALID,0,VALID,24.1696,VALID,312,VALID,1.00234,
2012-02-19, 02:52:04,VALID,999.652,VALID,0,VALID,93.1805,VALID,0,VALID,24.1696,VALID,306,VALID,0.701953,
2012-02-19, 02:53:04,VALID,999.684,VALID,0,VALID,93.1958,VALID,0,VALID,24.1696,VALID,279,VALID,0.641016,
2012-02-19, 02:54:04,VALID,999.702,VALID,0.5,VALID,93.2263,VALID,0,VALID,24.1891,VALID,289,VALID,0.797656,
2012-02-19, 02:55:04,VALID,999.676,VALID,0,VALID,93.2263,VALID,0,VALID,24.1696,VALID,290,VALID,0.532031,
2012-02-19, 02:56:04,VALID,999.733,VALID,0,VALID,93.2492,VALID,0,VALID,24.1696,VALID,256,VALID,1.10781,
2012-02-19, 02:57:04,VALID,999.722,VALID,0,VALID,93.2492,VALID,0,VALID,24.1482,VALID,265,VALID,0.896094,
2012-02-19, 02:58:04,VALID,999.785,VALID,0.5,VALID,93.2263,VALID,0,VALID,24.15,VALID,281,VALID,0.662109,
2012-02-19, 02:59:04,VALID,999.831,VALID,0.5,VALID,93.234,VALID,0,VALID,24.15,VALID,298,VALID,1.64961,
2012-02-19, 03:00:04,VALID,999.838,VALID,0.5,VALID,93.1958,VALID,0,VALID,24.111,VALID,287,VALID,1.14844,
2012-02-19, 03:01:04,VALID,999.829,VALID,1,VALID,93.1577,VALID,0,VALID,24.072,VALID,225,VALID,1.49102,
2012-02-19, 03:02:04,VALID,999.849,VALID,0,VALID,93.1882,VALID,0,VALID,24.0134,VALID,236,VALID,1.53594,
2012-02-19, 03:03:04,VALID,999.869,VALID,0.5,VALID,93.2568,VALID,0,VALID,23.9744,VALID,256,VALID,1.03555,
2012-02-19, 03:04:04,VALID,999.964,VALID,0.5,VALID,93.3866,VALID,0,VALID,23.9744,VALID,254,VALID,1.53984,
2012-02-19, 03:05:04,VALID,999.922,VALID,1,VALID,93.4705,VALID,0,VALID,23.9354,VALID,260,VALID,1.01758,
2012-02-19, 03:06:04,VALID,999.946,VALID,0.5,VALID,93.5773,VALID,0,VALID,23.9159,VALID,227,VALID,1.6957,
2012-02-19, 03:07:04,VALID,999.999,VALID,0.5,VALID,93.6612,VALID,0,VALID,23.8963,VALID,278,VALID,1.25195,
2012-02-19, 03:08:04,VALID,1000.04,VALID,0.5,VALID,93.7604,VALID,0,VALID,23.8768,VALID,323,VALID,1.20547,
2012-02-19, 03:09:04,VALID,1000.12,VALID,1,VALID,93.8138,VALID,0,VALID,23.8573,VALID,271,VALID,1.26758,
2012-02-19, 03:10:04,VALID,1000.13,VALID,1,VALID,93.9054,VALID,0,VALID,23.8378,VALID,320,VALID,0.629297,
2012-02-19, 03:11:04,VALID,1000.13,VALID,1,VALID,93.9664,VALID,0,VALID,23.8378,VALID,259,VALID,0.585938,
2012-02-19, 03:12:04,VALID,1000.12,VALID,1,VALID,94.0427,VALID,0,VALID,23.8201,VALID,349,VALID,0.955859,
2012-02-19, 03:13:04,VALID,1000.14,VALID,1.5,VALID,94.119,VALID,0,VALID,23.8183,VALID,286,VALID,1.49766,
2012-02-19, 03:14:04,VALID,1000.09,VALID,1,VALID,94.1571,VALID,0,VALID,23.7793,VALID,329,VALID,1.31055,
2012-02-19, 03:15:04,VALID,1000.11,VALID,0.5,VALID,94.2258,VALID,0,VALID,23.7597,VALID,278,VALID,1.0793,
2012-02-19, 03:16:04,VALID,1000.15,VALID,0.5,VALID,94.2792,VALID,0,VALID,23.7402,VALID,282,VALID,1.51055,
2012-02-19, 03:17:04,VALID,1000.14,VALID,1,VALID,94.2945,VALID,0,VALID,23.7402,VALID,277,VALID,0.516797,
2012-02-19, 03:18:04,VALID,1000.16,VALID,0.5,VALID,94.3326,VALID,0,VALID,23.6994,VALID,282,VALID,1.27773,
2012-02-19, 03:19:04,VALID,1000.18,VALID,1,VALID,94.3708,VALID,0,VALID,23.6799,VALID,261,VALID,0.519922,
2012-02-19, 03:20:04,VALID,1000.24,VALID,1,VALID,94.3937,VALID,0,VALID,23.6622,VALID,297,VALID,0.773047,
2012-02-19, 03:21:04,VALID,1000.24,VALID,1,VALID,94.4471,VALID,0,VALID,23.6622,VALID,306,VALID,0.527734,
2012-02-19, 03:22:04,VALID,1000.26,VALID,1,VALID,94.47,VALID,0,VALID,23.6409,VALID,319,VALID,0,
2012-02-19, 03:23:04,VALID,1000.24,VALID,1,VALID,94.4928,VALID,0,VALID,23.6427,VALID,350,VALID,0.445703,
2012-02-19, 03:24:04,VALID,1000.2,VALID,1.5,VALID,94.5005,VALID,0,VALID,23.6232,VALID,314,VALID,0.842188,
2012-02-19, 03:25:04,VALID,1000.14,VALID,1,VALID,94.5234,VALID,0,VALID,23.5823,VALID,291,VALID,1.0625,
2012-02-19, 03:26:04,VALID,1000.1,VALID,0.5,VALID,94.531,VALID,0,VALID,23.5841,VALID,295,VALID,1.06719,
2012-02-19, 03:27:04,VALID,1000.09,VALID,0.5,VALID,94.5768,VALID,0,VALID,23.5451,VALID,294,VALID,1.96719,
2012-02-19, 03:28:04,VALID,1000.06,VALID,0.5,VALID,94.5691,VALID,0,VALID,23.4866,VALID,296,VALID,1.07109,
2012-02-19, 03:29:04,VALID,1000.02,VALID,0.5,VALID,94.5768,VALID,0,VALID,23.4671,VALID,306,VALID,0.881641,
2012-02-19, 03:30:04,VALID,1000.05,VALID,0.5,VALID,94.5844,VALID,0,VALID,23.4475,VALID,321,VALID,0.625781,
2012-02-19, 03:31:04,VALID,1000.04,VALID,0,VALID,94.6073,VALID,0,VALID,23.4475,VALID,7,VALID,1.20781,
2012-02-19, 03:32:04,VALID,1000.06,VALID,0.5,VALID,94.6378,VALID,0,VALID,23.4085,VALID,335,VALID,1.04141,
2012-02-19, 03:33:04,VALID,1000.05,VALID,0.5,VALID,94.6683,VALID,0,VALID,23.389,VALID,306,VALID,0.895312,
2012-02-19, 03:34:04,VALID,1000.05,VALID,0.5,VALID,94.6836,VALID,0,VALID,23.389,VALID,296,VALID,0.461328,
2012-02-19, 03:35:04,VALID,1000.04,VALID,0,VALID,94.6988,VALID,0,VALID,23.4085,VALID,281,VALID,0.760156,
2012-02-19, 03:36:04,VALID,1000.12,VALID,0.5,VALID,94.7294,VALID,0,VALID,23.3695,VALID,272,VALID,0.766016,
2012-02-19, 03:37:04,VALID,1000.13,VALID,0.5,VALID,94.7141,VALID,0,VALID,23.3305,VALID,295,VALID,1.1957,
2012-02-19, 03:38:04,VALID,1000.18,VALID,0,VALID,94.7294,VALID,0,VALID,23.2915,VALID,258,VALID,0.780469,
2012-02-19, 03:39:04,VALID,1000.19,VALID,0,VALID,94.7599,VALID,0,VALID,23.2719,VALID,270,VALID,0.707422,
2012-02-19, 03:40:04,VALID,1000.24,VALID,0.5,VALID,94.7675,VALID,0,VALID,23.2524,VALID,333,VALID,1.11484,
2012-02-19, 03:41:04,VALID,1000.25,VALID,0,VALID,94.7751,VALID,0,VALID,23.2524,VALID,332,VALID,0.403516,
2012-02-19, 03:42:04,VALID,1000.31,VALID,0,VALID,94.8133,VALID,0,VALID,23.2329,VALID,332,VALID,0.326562,
2012-02-19, 03:43:04,VALID,1000.33,VALID,0,VALID,94.798,VALID,0,VALID,23.2329,VALID,332,VALID,0,
2012-02-19, 03:44:04,VALID,1000.38,VALID,0,VALID,94.8209,VALID,0,VALID,23.2329,VALID,332,VALID,0,
2012-02-19, 03:45:04,VALID,1000.42,VALID,0,VALID,94.8591,VALID,0,VALID,23.2524,VALID,332,VALID,0,
2012-02-19, 03:46:04,VALID,1000.42,VALID,0,VALID,94.8514,VALID,0,VALID,23.2524,VALID,274,VALID,0,
2012-02-19, 03:47:04,VALID,1000.42,VALID,0.5,VALID,94.8591,VALID,0,VALID,23.2524,VALID,271,VALID,0.0488281,
2012-02-19, 03:48:04,VALID,1000.4,VALID,0,VALID,94.8514,VALID,0,VALID,23.2719,VALID,271,VALID,0,
2012-02-19, 03:49:04,VALID,1000.35,VALID,0,VALID,94.882,VALID,0,VALID,23.2719,VALID,223,VALID,0.376172,
2012-02-19, 03:50:04,VALID,1000.31,VALID,0,VALID,94.8972,VALID,0,VALID,23.2507,VALID,223,VALID,0,